Погода Нижний Тагил

Погода Нижний Тагил : погода сейчас, прогноз погоды и архив. Всё, что Вы хотите узнать о погоде Нижний Тагил!

Хотите узнать прогноз погоды Нижний Тагил? Тогда Вам сюда: Погода Нижний Тагил

Поиск расширенной информации на нашем сайте:

Другие новости

Новости СМИ2

Главная страница сайта

Новости сайта

03.07.2017

Напоминаем, что на нашем специализированном сайте Метеоцентр.Азия вы можете получить высокодетализированные автоматические прогнозы погоды по пунктам России, СНГ и мира в авиационном формате (включающие направление и скорость ветра, видимость, явления погоды, количество и форму облачности, нижнюю и верхнюю границу облачности).

Рекомендуем: Сравнить цены на лазерная гравировка.

Погода Нижний Тагил - сегодня

Время (UTC), дата Ветер
(°,м/с) 
Видим.   Явления Облачность Т
(°С)
Тd
(°С)
f(%) Тe
(°С)
Pmin
(гПа)
dP
(гПа)
Po
(мм)
O2
(г/м3)
Тmin Tmax R s Состояние
почвы
18 16.09.17 270 (З) 3{10}  20000 м    ясно 
+13.3 +7.2 67 +13  1011.5  1.7  736  281           
21 16.09.17 260 (З) 20000 м    4/4 600 м 
[Sc]
+12.1 +7.3 72 +11  1011.2  -0.4  735  282           
00 17.09.17 250 (З) 20000 м    3/3 600 м 
[Sc]
+10.2 +7.6 84 +10  1012  0.5  736  284           
03 17.09.17 250 (З) 20000 м    9/9 600 м 
[Sc]
+10.2 +8.1 87 +9  1012.4  0.4  736  284  +9.5        влажная 
09 17.09.17 270 (З) 5{11}  20000 м    9/9 600 м кучево-дожд. 
[Cb cap]
+14.2 +6.8 61 +14  1012.5  0.2  736  281           
12 17.09.17 260 (З) 5{12}  20000 м    10/10 600 м кучево-дожд. 
[Cb cap]
+13.9 +5.9 58 +13  1012.2  -0.3  736  281           
18 17.09.17 260 (З) 4{10}  20000 м    5/5 600 м 
[Sc]
+11.3 +7.7 78 +11  1011.3  -1  735  283           
21 17.09.17 280 (З) 20000 м    3/3 600 м 
[Sc]
+10 +7.6 85 +9  1010.6  -0.8  735  284           
00 18.09.17 270 (З) 10 км  слаб. дождь  9/4 600 м средняя 
[Sc|As op]
+10.4 +7.3 81 +10  1010  -0.7  734  284           
03 18.09.17 280 (З) 6-11{13}  20000 м  {дождь}  9/9 600 м кучево-дожд. 
[Cb cap]
+8.3 +4.8 79 +6  1012.3  1.9  736  287  +8.2    0.4    сухая 
12 18.09.17 290 (З) 5{13}  20000 м    8/8 600 м кучево-дожд. 
[Cb cap]
+9.4 +1.8 59 +8  1017.5  1.2  740  288           
18 18.09.17 240 (ЮЗ) 20000 м    3/0 верхняя 
[Cc]
+2 +0.6 90 +3  1020.5  0.8  741  296           
21 18.09.17 100 (В) 20000 м    ясно 
-1.4 -1.4 100 -1  1021.3  0.4  741  300           
00 19.09.17 120 (ЮВ) 20000 м    ясно 
-2.2 -2.2 100 -2  1022.2  0.8  742  302           
03 19.09.17 090 (В) 20000 м    8/8 600 м 
[Sc]
+1.5 +1.5 100 +2  1021.8  742  297  -2.5        сухая 
06 19.09.17 130 (ЮВ) 10 км  слаб. дождь  10/0 средняя 
[As trans]
+4.8 +4 95 +4  1020.5  -0.8  741  293           
09 19.09.17 140 (ЮВ) 4000 м  дождь  10/0 средняя 
[As op]
+5.3 +4.6 95 +5  1018.7  -1.8  740  292           
12 19.09.17 140 (ЮВ) 20000 м  в посл. час дождь  10/0 средняя 
[As trans]
+7 +6.7 98 +6  1016.6  -1.8  739  289           
18 19.09.17 120 (ЮВ) 4000 м  дождь  10/0 средняя 
[As trans]
+8.2 +7.9 98 +7  1012.7  -2.3  736  287           
21 19.09.17 тихо ()   20000 м  {дождь}  ясно 
+8.3 +8.2 99 +8  1009.9  -2.7  734  286           
00 20.09.17 220 (ЮЗ) 20000 м  {дождь}  ясно 
+11.5 +11.3 99 +15  1009.4  -0.1  734  282           
03 20.09.17 250 (З) 20000 м    8/3 600 м кучево-дожд., верхняя 
[Cb cap|Cc]
+11.9 +11.5 97 +16  1010.2  0.9  735  281  +7.3      влажная 
06 20.09.17 260 (З) 20000 м    10/10 600 м кучево-дожд. 
[Cb cap]
+12.8 +11.2 90 +16  1012.1  1.9  736  281           
09 20.09.17 270 (З) 20000 м    8/8 600 м кучево-дожд. 
[Cb cap]
+15.8 +10.6 71 +18  1012.8  737  279           
12 20.09.17 260 (З) 4{10}  20000 м    9/9 600 м кучево-дожд. 
[Cb cap]
+14.1 +8.9 71 +14  1014.4  1.4  738  281           
Время (UTC), дата Ветер
(°,м/с) 
Видим.   Явления Облачность Т
(°С)
Тd
(°С)
f(%) Тe
(°С)
Pmin
(гПа)
dP
(гПа)
Po
(мм)
O2
(г/м3)
Тmin Tmax R s Состояние
почвы

Для получения пояснительной информации подведите курсор к названию столбца.

ПОГОДА Нижний Тагил - архив

Всё, что Вы хотите узнать о погоде Нижний Тагил - удобно и подробно!

Выберите нужную дату (начиная с 1 января 2015* года) и нажмите кнопку "Найти".
Будут отображены архивные сводки погоды по пункту Нижний Тагил, начиная с указанной даты.


Отображать данные в формате CSV (для использования в таблицах Excel)


Внимание! Наш архив погоды предназначен исключительно для личного некоммерческого использования в познавательных целях. Если Вам необходимы официальные справки о состоянии погоды (для производственных, юридических, коммерческих и т.п. целей), обращайтесь в органы Росгидромета.

*Примечание: данная дата относится к архиву по метеостанциям СССР (Россия, СНГ, Балтия).
Архив по метеостанциям Зарубежной Европы и Азии (кроме Китая) хранится 10 дней, по другим регионам земного шара (Китай, Африка, Америка, Австралия, Океания) - 1 день.

Нижний Тагил - район местоположения метеостанции


Название, широта, долгота, высота метеостанции:
Нижний Тагил 57.9°ш. 60.1°д. 260 м над ур. моря [Российская Федерация]

Дополнительная информация

В oтличие oт бoльшинства пoгoдных сайтoв мы публикуем пoдрoбную метеoинфoрмацию в детальнoм прoфессиoнальнoм фoрмате.

Характеристики температуры и влажнoсти вoздуха измеряются на высoте 2 м в тени вдали oт зданий и деревьев.
Скoрoсть ветра измеряется на высoте 10 м (на урoвне рoста челoвека скoрoсть ветра ниже в 1.5-2 раза). Если метеoстанция нахoдится в гoрoде или в лесу, тo скoрoсть ветра занижена на 2-4 м/с пo сравнению с oткрытым местoм. Скoрoсть ветра над акватoриями крупных рек и oзёр, а также на вершинах хoлмoв на 2-5 м/с выше, чем в oбычных услoвиях.
Атмoсфернoе давление в разных тoчках местнoсти мoжет значительнo oтличаться oт давления на метеoстанции, в зависимoсти oт услoвий рельефа (при пoдъёме на 10 м давление пoнижается примернo на 1 мм рт.ст.).